ISS (ZARYA) 1 25544U 98067A 08205.52659841 .00005109 00000-0 37524-4 0 9142 2 25544 51.6416 189.4908 0010117 46.5341 52.1017 15.75173544554256 ATV-1 (JULES VERNE) 1 32686U 08008A 08204.51054748 .00004624 00000-0 34391-4 0 1946 2 32686 51.6408 194.7171 0010044 42.6412 50.4795 15.75159933 21358 SOYUZ-TMA 12 1 32756U 08015A 08204.51054748 .00004624 00000-0 34391-4 0 907 2 32756 51.6408 194.7171 0010044 42.6412 50.4795 15.75159933 16563 PROGRESS-M 64 1 32847U 08023A 08204.51054748 .00004624 00000-0 34391-4 0 569 2 32847 51.6408 194.7171 0010044 42.6412 50.4795 15.75159933 10838